Weather in Tsentral'nyy

Russia / Tula Oblast     53°26′14″N   37°36′54″E
temp.,
°C
wind,
m/s
gust,
m/s
humid.,
%
clouds,
%
prec.,
mm/h
press.,
hPa
HPBL,
m
24 july, sat
sat2400:00+16wnw347270 0.0 101087
03:00+15nw227797 0.0 101152
06:00+15nw367889 0.0 1012217
09:00+18nnw45615 0.0 1013795
12:00+20n444998 0.1 10142006
15:00+19n335372 0.2 10151155
18:00+18nw3559100 0.0 1016148
21:00+14nne22611 0.0 101811
25 july, sun
sun2500:00+14n115677 0.0 101911
03:00+15wnw1151100 0.0 101911
06:00+15s0056100 0.0 102111
09:00+17n1153100 0.0 1022165
12:00+21ssw12429 0.0 10221202
15:00+21wsw2344100 0.0 10221785
18:00+21wsw125152 0.0 1022378
21:00+17e115954 0.0 102311
26 july, mon
mon2600:00+16ssw116093 0.0 102411
03:00+16sw115888 0.0 102511
06:00+17ssw006192 0.0 102511
09:00+19ssw105386 0.0 1025229
12:00+23wsw22399 0.0 10251693
15:00+24wnw223662 0.0 10242361
18:00+23nw234746 0.0 1024416
21:00+18nw115422 0.0 102411
27 july, tue
tue2700:00+17nne115648 0.0 102511
03:00+15nne11604 0.0 102410
06:00+16nne11642 0.0 102511
09:00+22se11465 0.0 1025369
12:00+26s12342 0.0 10242040
15:00+27sw223317 0.0 10232498
18:00+26wnw213730 0.0 10221802
21:00+21wnw224982 0.0 102230
28 july, wed
wed2800:00+18ne11570 0.0 102211
03:00+17se11595 0.0 102111
06:00+18ssw22625 0.0 102113
09:00+24ssw34460 0.0 1020477
12:00+27ssw57355 0.0 10182048
15:00+28ssw5632100 0.0 10162208
18:00+27ssw464249 0.0 1015979
21:00+23sse495243 0.0 1013175